Tracking 31011 objects as of 11-Jul-2025
HD Live streaming from Space Station
objects crossing your sky now

FALCON 9 R/B

Track FALCON 9 R/B now!
10-day predictions


NORAD ID: 58348
Int'l Code: 2023-175C
Perigee: 2,599.0 km
Apogee: 7,010.5 km
Inclination: 9.0 °
Period: 196.0 minutes
Semi major axis: 11175 km
RCS: Unknown
Launch date: November 12, 2023
Source: United States (US)
Launch site: AIR FORCE EASTERN TEST RANGE (AFETR)

Note: This is a ROCKET BODY
Your satellite tracking list
Your tracking list is empty




NASA's NSSDC Master Catalog

Two Line Element Set (TLE):
1 58348U 23175C   25192.21899692  .00000063  00000-0  58089-2 0  9992
2 58348   9.0312  11.7531 1973700 165.5497 201.0409  7.34835291 44609
Source of the keplerian elements: AFSPC